Theta_e
312 316 316 317 315 314 313 312 311 312 312 310 311 312 312 311 310 310 310 310 309 308 309 310 310 309 309 309 309 308 309 309 309 308 308 309 308 309 309 309 309 309 309 309 308 308 308 308 308 308 308 308 308 307 307 306 306 306 306 306 305 305 305 304 305 305 306 307 306 305 305 306 305 304 304 305 305 305 304 303 301 299 298 297 296 296
311 315 316 316 314 313 313 312 310 311 311 311 312 312 311 311 310 310 310 310 308 308 310 311 310 309 309 309 309 309 309 309 309 309 309 309 309 310 310 310 310 310 310 310 309 307 307 308 308 308 308 308 307 308 307 307 306 306 305 305 305 305 304 304 304 304 305 306 305 305 305 304 303 303 303 303 304 304 303 302 300 298 297 296 296 296
313 314 314 312 311 312 314 313 312 312 312 313 312 312 312 311 311 310 310 311 310 309 311 311 309 309 309 309 309 309 309 309 310 310 310 310 310 310 310 311 311 311 310 309 309 307 305 307 308 307 308 307 307 307 307 307 306 305 305 305 305 304 304 304 304 303 304 304 305 305 304 303 302 302 302 302 302 302 301 299 298 298 297 296 296 296
318 318 315 310 309 311 312 312 312 312 311 313 313 312 312 312 312 312 312 315 312 309 310 310 309 309 309 309 309 309 308 309 309 309 310 310 309 310 310 311 311 310 310 309 309 308 305 305 306 307 307 307 307 307 306 306 305 305 305 305 304 304 304 304 303 303 303 303 303 303 302 302 301 301 300 300 300 299 299 298 297 297 296 296 296 296
317 317 315 313 311 310 312 312 312 313 312 313 314 313 312 312 312 311 312 314 312 312 312 310 311 313 312 313 316 315 312 310 309 311 311 310 310 311 311 312 310 309 311 310 309 309 310 307 304 305 306 306 306 306 306 306 305 305 305 305 305 304 304 303 303 302 302 302 302 301 300 300 299 299 298 297 297 297 297 297 296 296 296 296 296 296
315 313 312 314 314 310 312 313 314 315 312 313 316 314 312 312 312 312 312 311 313 317 314 311 314 316 314 317 323 322 319 316 315 316 314 311 311 313 314 314 310 309 310 310 309 312 313 306 302 303 304 305 305 305 305 305 304 304 304 304 304 304 303 303 302 302 301 301 301 300 299 298 297 297 297 297 297 296 296 296 296 296 295 295 295 295
315 312 310 315 316 314 314 316 316 315 312 313 318 317 313 312 312 313 312 311 316 317 312 312 317 316 314 316 319 317 315 317 317 315 312 311 312 313 314 312 310 309 309 310 311 313 312 306 302 303 303 303 304 304 304 303 303 303 303 303 303 303 303 303 302 301 301 301 300 300 299 298 298 297 297 298 297 297 296 296 296 295 295 295 295 295
314 312 311 314 317 317 315 315 315 312 313 316 317 318 317 315 315 314 312 312 316 314 312 313 315 315 315 315 315 314 314 316 316 315 312 312 313 314 313 310 309 310 311 312 311 311 310 306 302 302 302 302 303 303 304 303 303 303 302 302 302 303 302 302 302 301 301 301 300 300 299 299 299 299 298 298 297 297 296 296 295 295 295 295 295 295
313 313 315 315 317 317 316 317 316 312 314 318 312 312 314 314 315 314 313 314 314 313 314 314 312 315 319 315 313 313 316 319 319 319 317 314 314 316 314 309 307 310 312 312 310 309 308 304 301 301 301 303 303 303 303 303 303 303 302 302 301 302 302 301 301 301 300 300 300 299 299 299 299 299 299 298 297 297 296 296 295 295 294 294 294 295
310 312 315 318 317 316 318 319 317 314 315 314 309 311 315 314 314 313 313 316 317 316 315 314 313 317 320 317 315 314 315 320 322 321 320 318 318 319 315 310 307 308 310 310 309 308 305 301 301 302 302 302 302 302 302 302 302 302 302 302 301 301 301 301 300 300 300 300 299 299 299 299 299 298 298 298 297 297 296 296 295 294 294 294 294 294
309 308 309 315 315 314 318 314 310 312 313 311 312 317 318 315 314 315 316 316 317 319 317 316 315 315 318 320 318 317 317 319 319 317 317 316 318 320 314 308 307 307 309 310 308 306 302 300 301 302 301 301 300 300 300 300 301 301 301 301 301 300 300 300 300 300 300 299 299 299 299 298 298 298 298 297 297 297 296 296 295 295 294 294 294 294
309 308 311 316 315 312 315 311 307 308 310 313 319 317 315 318 317 318 320 317 317 322 319 315 313 313 317 318 315 318 319 316 314 314 314 313 314 316 311 307 307 308 310 308 306 305 303 301 301 300 300 300 299 299 298 299 299 299 300 300 300 300 300 299 299 299 299 299 299 298 298 298 298 298 298 297 297 296 296 296 295 295 294 294 293 293
315 313 312 313 312 309 311 313 310 309 308 311 316 313 313 319 319 320 323 318 318 322 315 310 311 311 315 315 313 316 316 314 312 313 314 313 313 312 310 310 310 309 309 307 305 304 301 300 299 298 298 298 298 297 297 297 298 298 299 299 299 299 299 299 298 299 299 299 299 298 298 298 298 298 297 297 297 296 296 296 295 295 294 294 293 293
323 318 310 309 312 311 311 314 314 314 312 310 312 314 316 319 319 323 325 319 319 321 313 308 312 314 315 316 316 314 313 314 314 313 314 313 311 310 311 313 311 308 307 304 302 301 299 298 297 296 297 297 297 296 295 296 296 296 297 297 298 298 298 298 298 298 298 298 298 298 298 298 297 297 297 297 297 296 296 296 295 295 295 295 294 294
323 323 319 315 316 313 310 312 318 320 313 309 313 316 317 321 325 326 326 323 323 322 313 307 313 319 318 319 318 314 313 316 314 312 312 309 307 310 313 312 309 306 303 301 300 298 297 296 296 295 296 295 295 295 295 295 294 295 295 295 296 296 296 296 296 297 297 297 298 297 297 297 297 297 297 297 297 296 296 296 296 296 295 295 295 295
318 324 324 315 313 311 310 312 318 320 314 310 313 315 315 321 326 324 323 323 323 321 315 312 316 319 316 315 314 313 313 314 313 313 312 309 308 311 312 308 305 302 300 299 298 296 296 295 295 295 294 294 295 294 294 294 294 294 294 295 295 295 296 296 295 296 296 296 296 297 297 297 296 297 296 296 296 296 296 296 296 296 296 296 295 295
318 324 320 311 309 311 311 311 313 318 318 313 312 315 315 316 319 320 321 321 318 318 319 318 318 316 314 316 314 313 314 313 314 314 310 308 309 310 307 304 302 299 298 297 296 295 295 294 294 294 293 294 294 294 294 294 294 294 294 295 295 295 295 295 295 295 295 295 296 296 296 296 296 296 296 296 296 296 296 295 295 296 295 295 295 295
320 322 318 313 313 311 307 309 311 312 314 314 315 316 313 312 314 317 320 320 317 318 320 319 320 317 317 321 318 315 316 315 314 312 308 306 306 305 302 300 298 297 296 295 295 295 294 293 293 293 293 293 293 293 293 293 294 294 294 294 294 295 295 295 295 295 295 295 295 295 295 295 295 296 295 295 295 295 295 295 295 295 295 295 295 295
318 318 320 316 314 312 307 310 313 310 308 312 315 313 313 316 316 316 318 319 317 319 319 319 320 317 316 319 317 316 316 314 312 310 306 304 302 300 299 297 295 295 295 294 294 294 293 293 293 293 293 293 293 293 293 293 293 293 293 294 294 294 294 294 294 294 294 294 294 294 294 294 295 295 295 295 295 295 295 295 295 295 295 295 295 295
318 318 321 316 313 313 311 313 318 315 309 308 310 310 312 315 316 316 318 319 319 318 319 320 319 317 319 319 317 319 315 309 310 309 304 301 298 297 296 295 295 295 294 294 293 293 293 293 292 293 293 293 293 293 292 293 293 292 292 293 293 293 294 294 294 294 294 294 294 294 294 294 294 294 294 295 294 295 295 295 295 295 295 295 295 294
316 317 318 317 315 314 313 315 319 319 315 312 311 312 311 311 316 318 316 317 318 316 317 320 318 319 327 326 319 318 312 305 307 306 300 298 297 296 295 294 294 294 293 293 293 293 293 292 292 293 293 293 293 292 292 292 292 292 292 292 292 292 292 293 293 293 294 294 293 293 294 294 294 294 294 294 294 294 294 294 294 294 294 294 294 294
317 319 318 318 318 316 316 319 318 317 318 317 315 314 312 312 315 316 315 316 318 315 316 318 317 320 330 328 319 314 306 302 303 301 297 297 296 295 295 294 293 293 293 293 292 292 292 292 292 293 293 293 292 292 292 292 292 292 291 291 291 291 291 292 292 293 293 293 293 293 293 293 293 293 293 293 293 294 294 294 294 294 294 294 294 293
318 318 318 318 317 317 318 319 317 314 315 316 315 314 315 314 314 315 317 319 319 318 317 317 318 321 326 325 316 309 301 299 300 298 297 296 295 294 294 293 293 292 292 292 292 292 291 291 291 292 292 292 292 292 292 291 291 291 291 290 290 290 290 291 291 292 292 292 293 293 293 293 292 292 292 292 293 293 293 294 294 294 293 293 293 293
315 315 316 317 317 319 320 319 315 312 312 314 315 314 314 314 315 315 315 315 317 318 317 318 319 319 321 322 314 303 299 299 298 297 296 295 294 294 293 293 293 292 292 291 291 291 290 290 290 291 291 291 292 292 291 291 291 291 291 290 290 289 290 290 290 291 291 291 292 292 292 292 292 292 292 292 292 292 292 293 293 293 293 293 293 292
314 315 316 316 317 318 318 318 316 313 314 316 317 316 314 314 315 315 313 313 315 316 317 318 318 317 319 321 316 307 301 299 297 295 295 294 294 294 293 293 292 292 291 291 291 290 290 290 290 290 290 291 291 291 291 291 291 290 290 290 289 289 289 289 290 290 290 291 291 291 291 291 291 291 291 291 291 291 291 292 292 292 292 292 292 292
313 315 315 316 317 317 315 315 314 314 315 315 315 316 314 314 315 315 314 315 316 316 317 317 316 316 316 317 317 312 304 300 297 295 294 293 293 293 292 292 292 292 291 291 291 291 290 290 290 289 290 290 290 291 291 290 290 290 290 290 289 289 289 289 289 289 289 290 290 290 290 290 291 291 291 291 291 291 291 291 291 291 291 291 291 291
312 313 314 315 315 315 314 314 313 313 313 313 313 313 313 313 313 313 313 315 315 315 315 314 314 315 314 314 315 311 304 300 297 294 293 293 292 292 292 292 291 291 291 290 291 291 290 290 290 289 289 290 290 291 291 290 290 290 290 289 289 288 288 289 288 289 289 289 289 290 289 289 290 290 291 290 290 290 290 291 291 291 291 291 291 291
312 311 313 313 313 313 313 312 312 312 312 312 312 312 312 312 312 312 313 313 313 313 314 314 313 313 312 312 313 307 301 298 295 294 293 293 292 292 292 291 291 291 291 290 290 291 290 290 290 289 289 290 290 291 291 290 290 289 289 289 288 288 288 288 288 288 288 288 289 289 289 288 289 289 290 291 291 290 290 290 290 290 291 291 290 290
310 308 309 310 310 310 310 309 309 309 308 309 309 309 310 310 310 310 310 310 310 311 311 311 311 311 310 309 305 300 297 297 295 294 293 292 292 292 291 291 291 291 291 291 290 291 290 290 290 289 289 289 290 291 290 290 289 289 289 288 287 287 288 288 288 288 288 288 288 289 288 288 288 288 289 290 291 291 290 290 289 289 290 290 290 290
306 305 307 307 306 306 305 305 305 305 304 304 304 305 305 306 307 307 307 307 307 308 308 308 308 308 307 303 298 294 294 296 295 294 294 292 292 292 291 290 290 290 290 290 290 290 290 290 289 289 289 289 290 290 290 289 289 288 288 287 286 287 287 287 287 287 287 288 288 288 288 288 288 288 288 289 290 291 291 290 290 289 289 289 290 290
305 305 305 304 303 303 302 302 303 302 301 301 301 302 303 303 304 304 304 304 304 305 305 306 307 307 302 296 294 293 293 294 294 294 295 293 292 292 290 289 290 290 290 290 290 290 290 290 289 289 289 289 290 290 290 289 288 288 287 286 285 286 286 287 287 287 287 287 288 288 288 287 287 287 288 288 288 289 290 291 290 290 289 289 289 289
303 303 302 302 301 302 301 301 300 299 299 299 299 300 300 300 301 301 302 303 303 304 304 304 305 304 298 293 292 292 291 291 292 292 293 294 293 292 290 289 290 290 290 290 290 290 290 289 289 289 288 289 289 289 289 288 287 287 286 285 284 285 285 286 286 286 286 286 287 287 287 287 287 287 287 287 287 287 288 289 290 290 289 288 288 288
300 300 300 300 300 300 300 299 298 298 298 297 297 298 298 298 298 298 299 300 302 302 304 304 302 299 295 293 292 292 291 290 291 291 292 293 293 292 290 289 290 289 290 290 290 290 290 289 289 288 288 288 289 289 289 287 286 286 285 284 283 284 284 285 285 285 285 285 286 286 286 286 286 287 287 287 286 286 287 287 288 289 289 288 288 287
300 299 298 298 299 299 298 297 297 297 296 295 297 300 300 299 299 299 299 301 300 299 299 299 297 295 294 294 293 293 292 291 291 292 292 293 293 291 289 289 289 289 289 290 290 290 289 288 288 288 288 288 288 288 288 287 285 285 284 283 283 283 284 284 284 284 284 284 285 285 285 285 286 287 287 286 286 285 285 286 287 288 288 288 287 287
298 297 297 298 298 297 297 297 296 295 295 296 299 299 298 300 301 300 299 298 297 296 296 296 294 294 295 295 294 294 292 291 292 292 292 292 292 291 289 289 289 289 289 289 289 289 289 287 287 287 287 288 288 287 287 286 285 284 283 282 282 282 283 283 283 283 283 283 283 283 283 284 285 286 286 286 285 285 285 285 285 286 287 288 287 286
296 296 296 297 297 296 296 297 296 295 294 296 298 297 296 297 298 298 297 296 295 295 295 294 294 294 295 294 294 293 292 291 292 292 291 291 292 291 290 290 289 289 289 289 289 289 288 287 287 287 287 287 287 286 286 285 284 283 282 281 281 281 282 282 282 282 282 282 282 282 282 283 285 286 285 285 284 284 284 284 284 285 286 287 287 286
295 295 295 295 296 295 295 295 295 295 295 296 298 297 295 295 296 296 297 297 293 292 293 294 295 295 295 295 293 293 293 292 291 291 291 291 291 291 291 290 289 289 289 289 288 288 288 287 287 286 286 286 285 285 285 284 283 282 281 280 280 280 281 281 281 281 281 281 281 281 280 281 284 285 284 283 283 283 283 283 283 284 284 286 286 286
294 295 295 294 295 296 295 295 296 295 296 297 297 295 294 295 295 294 296 297 292 290 291 293 296 296 295 295 294 292 292 291 290 290 291 292 291 291 291 290 288 288 288 288 287 287 287 286 286 285 285 285 284 284 284 284 282 281 280 279 279 280 280 280 280 280 280 280 279 279 279 280 283 283 282 281 281 280 280 281 282 283 283 284 285 285
293 294 295 295 296 297 297 297 297 296 297 298 297 294 293 294 295 294 296 295 290 288 291 293 295 296 295 295 294 292 292 291 290 289 290 291 291 290 290 289 286 286 287 287 286 286 285 285 284 284 284 283 282 282 283 282 281 280 279 279 279 279 279 279 279 279 278 278 278 277 277 279 281 281 279 279 278 278 278 279 281 282 283 283 284 285
293 294 295 295 295 296 296 297 297 296 297 297 296 295 294 293 294 294 295 293 289 288 291 293 294 295 295 294 293 292 292 291 290 288 289 290 289 287 287 287 286 285 285 285 285 284 284 283 283 283 282 281 281 281 281 281 280 279 278 278 278 278 278 278 278 278 277 276 276 275 276 278 279 277 277 276 275 275 277 278 280 281 282 282 283 283
293 293 293 294 295 296 296 296 296 296 298 298 297 295 294 292 291 292 293 293 290 289 290 293 294 295 294 293 293 292 292 291 290 289 288 288 288 286 285 285 285 284 284 284 284 283 283 282 282 281 281 281 280 280 280 280 279 278 277 277 277 277 277 277 276 276 275 275 274 275 276 276 275 274 274 273 274 274 276 277 279 280 281 281 282 282
293 292 292 292 293 294 294 295 294 293 296 298 295 292 291 291 293 295 294 291 289 288 289 292 294 294 293 293 292 291 291 290 289 289 288 287 288 288 285 284 284 284 284 284 283 282 281 281 280 280 280 280 279 279 278 278 277 277 276 276 276 276 276 275 275 274 274 273 273 274 274 273 272 272 272 272 272 273 274 275 276 277 279 281 281 282
293 293 294 293 293 292 292 292 292 292 293 294 292 290 290 292 295 296 292 289 288 288 288 290 292 292 292 292 291 290 290 289 289 288 287 287 287 287 285 284 283 283 283 282 282 281 280 280 279 279 279 279 278 278 277 276 276 276 275 275 275 275 274 274 273 273 272 272 272 271 271 271 270 270 270 271 271 272 273 274 275 276 278 280 281 281
292 293 294 293 293 293 292 293 295 295 293 291 290 291 293 293 292 291 289 288 288 289 289 290 290 291 291 291 290 289 289 288 288 288 287 287 286 285 284 283 282 282 281 281 281 280 279 279 278 278 278 278 278 277 276 275 275 274 274 274 274 274 273 272 272 271 270 270 270 269 269 269 269 269 269 269 270 271 272 273 274 276 277 279 280 281
292 293 292 291 291 293 293 293 294 294 292 290 290 291 291 290 290 288 288 288 288 288 289 289 289 289 289 288 288 288 287 287 287 288 287 286 285 284 283 282 281 280 280 279 279 279 278 278 277 277 277 277 276 276 275 275 274 274 273 273 273 272 272 271 270 270 269 269 268 268 268 268 268 268 268 268 269 270 271 272 274 275 277 279 280 280
291 291 290 289 290 290 290 290 290 290 290 289 289 289 289 289 289 288 288 288 288 288 288 288 287 287 287 287 286 286 287 287 287 287 286 284 283 282 281 280 279 279 278 278 278 278 277 277 276 275 275 275 275 275 274 274 273 273 273 272 272 271 270 270 269 268 268 268 267 267 267 267 267 267 267 267 268 269 270 271 273 275 277 279 280 280
290 289 288 288 289 289 289 289 289 289 290 289 289 289 289 289 288 287 287 288 287 287 286 286 286 286 286 286 286 285 285 285 284 283 282 280 280 279 279 278 278 277 277 277 276 276 275 275 274 274 273 273 273 273 273 273 272 272 272 271 270 270 269 268 267 267 266 266 266 266 266 266 266 266 266 267 267 268 269 271 273 274 276 278 279 280
289 289 289 288 288 288 288 288 288 289 289 289 288 288 288 288 288 287 287 286 286 286 285 284 284 284 284 284 283 282 282 281 280 279 279 278 278 278 277 277 276 276 276 275 275 274 274 273 273 272 272 272 272 272 272 271 271 271 270 269 269 268 267 266 266 266 265 265 265 265 265 265 265 265 265 266 267 268 269 270 272 273 275 277 278 279
289 289 289 289 289 288 288 289 288 289 289 288 288 288 287 287 287 287 286 285 285 285 284 282 281 280 281 280 279 279 279 278 277 277 277 276 276 276 275 275 275 274 274 273 273 272 272 271 271 271 271 271 271 270 270 269 269 268 268 267 267 266 265 265 264 264 264 264 264 264 264 264 264 264 265 265 266 267 268 269 271 272 274 275 277 278
289 289 289 289 289 288 288 288 288 288 288 288 288 288 288 287 287 286 286 285 284 282 281 280 279 277 277 277 276 276 276 276 275 275 275 275 274 274 274 273 273 272 272 271 271 270 270 270 269 269 268 268 268 267 267 267 266 266 265 265 264 264 263 263 263 263 263 263 263 263 263 263 263 264 264 265 265 266 267 269 270 272 273 275 276 277
289 289 289 289 289 289 289 289 289 288 288 288 288 288 286 283 284 285 284 281 279 277 275 276 276 276 275 274 274 274 274 274 274 273 273 272 272 272 271 271 271 270 270 269 269 268 267 267 266 266 266 265 265 265 264 264 263 263 263 262 262 262 262 262 262 262 262 262 262 262 262 263 263 263 264 264 265 266 268 270 271 272 274 275 276 277
Wind_Speed
3 3 3 5 9 10 10 10 12 7 3 1 2 5 6 7 9 8 9 9 3 5 9 10 17 17 12 13 13 14 14 16 20 16 12 14 16 15 13 15 15 14 16 14 12 13 14 16 17 18 20 21 23 25 27 29 31 34 35 36 37 38 38 38 39 40 40 41 40 40 43 46 45 44 44 46 48 50 51 51 51 51 50 49 49 48
3 4 7 12 10 6 5 5 5 4 4 5 5 6 6 6 11 9 9 11 2 1 6 7 15 17 13 14 14 15 16 18 19 13 11 15 17 16 15 16 13 11 13 9 9 11 13 14 15 15 17 19 22 23 25 28 31 32 33 35 36 36 37 40 41 41 42 44 44 43 45 45 42 43 45 47 49 50 50 50 51 51 51 50 50 50
2 4 11 13 5 2 2 4 3 4 5 6 4 4 5 4 8 8 7 8 2 1 6 8 14 14 14 18 18 18 16 15 15 11 12 15 16 18 14 9 9 11 12 9 7 8 13 14 14 15 16 18 21 23 24 26 28 29 32 34 34 35 37 39 41 42 43 43 42 41 40 39 38 39 43 45 45 46 47 47 48 49 50 51 51 51
3 6 12 11 4 3 3 2 2 3 3 5 4 4 6 5 5 6 5 5 3 4 6 10 14 11 12 15 14 14 12 11 14 13 15 16 15 17 12 7 9 11 13 12 7 6 9 14 15 16 17 18 19 22 23 24 26 28 30 33 34 35 37 38 40 42 41 39 38 37 35 34 34 35 37 38 39 42 44 44 46 48 49 50 50 50
6 6 4 3 5 7 7 4 3 5 5 5 6 5 9 10 9 9 5 6 6 5 4 7 12 8 5 6 6 6 4 7 10 13 16 13 6 8 10 9 7 5 8 10 8 6 8 11 14 17 17 18 18 20 22 23 24 26 28 31 33 34 35 36 38 39 37 34 33 32 28 26 29 29 29 34 38 39 40 43 46 47 48 49 49 49
7 5 4 4 3 5 5 6 6 7 5 4 5 11 15 13 11 10 7 7 5 4 3 6 8 6 1 1 5 4 4 6 7 12 15 6 4 3 7 9 3 4 3 6 7 8 9 9 13 17 18 17 18 19 20 20 21 23 25 27 29 32 33 34 35 36 36 35 34 33 30 28 29 28 31 39 42 39 41 44 45 46 47 48 48 48
5 3 3 5 4 6 5 6 6 8 4 5 5 10 13 11 9 9 6 3 1 3 3 3 2 7 3 3 8 5 3 10 11 12 11 6 6 7 7 7 4 5 3 4 5 7 9 9 10 15 18 19 18 19 19 18 18 19 21 24 26 29 32 33 34 35 36 36 35 36 35 33 32 33 36 39 38 38 42 43 43 46 47 48 48 48
4 1 5 5 5 6 5 6 6 9 5 5 4 4 6 7 7 5 3 3 3 3 4 1 3 6 8 5 6 3 5 11 13 10 10 8 8 8 7 5 6 6 4 4 5 6 9 9 10 13 17 18 17 17 16 15 14 15 17 20 22 25 28 30 31 34 36 37 37 37 36 34 35 35 32 31 31 33 37 39 41 43 45 46 47 47
4 5 5 6 5 4 6 5 7 11 5 5 3 4 5 4 4 4 3 3 2 3 4 2 4 3 10 4 1 0 5 9 11 9 9 9 8 9 7 5 8 5 5 5 6 8 8 10 13 15 17 19 18 18 17 14 12 11 12 15 18 21 24 26 28 31 35 37 36 37 36 34 34 33 28 25 27 30 32 35 38 39 41 44 45 47
1 4 7 8 6 6 7 5 8 11 5 4 5 5 4 4 3 4 3 2 2 3 4 5 5 3 10 4 3 1 2 6 8 6 6 7 8 8 6 6 4 4 4 6 7 7 7 9 14 16 18 21 22 21 20 17 14 11 10 11 14 17 21 23 26 29 32 35 35 35 36 35 32 29 26 24 25 28 30 33 35 36 39 42 44 46
1 0 2 5 4 5 4 2 3 7 5 3 6 5 5 4 4 3 1 3 1 5 5 9 10 5 6 4 3 3 3 5 4 4 6 8 8 8 4 5 4 4 6 8 7 6 7 12 19 22 23 25 27 27 24 20 17 14 10 9 11 13 17 20 23 26 30 32 33 33 33 34 32 28 27 26 26 28 30 32 34 35 37 39 42 45
1 1 2 4 2 3 6 3 2 2 4 4 4 3 3 3 4 4 4 3 1 6 4 6 7 6 6 5 1 4 6 6 3 5 10 10 10 8 6 6 6 6 8 8 7 8 11 16 22 26 27 30 33 34 32 27 21 16 13 10 9 10 13 17 20 24 27 30 32 31 30 31 31 28 29 30 29 29 31 32 32 33 34 35 37 40
1 4 4 4 1 4 5 2 3 4 3 4 3 2 1 3 3 3 3 0 3 6 4 2 2 4 9 7 3 9 13 9 6 5 8 9 9 7 9 8 6 7 8 7 7 9 12 12 15 20 25 28 32 34 35 34 28 22 17 13 11 10 10 13 17 21 24 28 30 31 31 31 30 29 29 30 30 30 31 31 31 32 33 34 35 38
4 4 1 1 3 4 8 5 2 2 4 6 5 5 3 1 1 3 3 2 4 5 3 1 2 3 8 6 7 13 14 9 2 3 6 6 5 6 6 6 6 7 7 7 8 11 11 11 12 17 23 26 28 30 33 34 31 26 21 17 15 13 11 11 14 18 22 26 28 29 30 29 28 28 29 30 29 29 30 31 31 33 35 37 39 41
4 7 4 6 3 5 10 8 5 4 5 6 5 5 4 4 4 4 4 4 6 4 2 2 2 3 4 3 6 9 7 6 4 3 4 3 3 3 3 5 8 9 9 8 10 12 12 13 16 20 24 27 29 32 33 34 33 29 26 23 20 18 15 13 13 16 19 23 25 27 28 28 28 28 29 29 29 29 29 30 31 33 36 38 40 41
4 8 6 3 1 8 9 4 4 6 2 3 3 4 2 4 5 3 4 5 4 3 3 2 3 5 4 6 9 7 4 4 5 4 5 6 5 4 5 8 9 10 10 10 11 12 13 16 22 24 26 29 32 35 36 37 37 35 33 30 27 23 19 16 14 15 17 20 22 24 26 27 28 28 29 29 29 28 29 30 31 33 36 37 38 39
4 7 3 2 1 6 6 2 3 3 2 2 3 3 4 4 5 2 5 1 1 4 5 4 6 6 4 10 9 0 2 3 5 6 6 7 7 8 9 9 9 10 11 11 11 11 12 16 20 22 24 27 30 33 36 38 39 39 37 35 32 29 25 21 19 18 18 19 21 23 25 26 27 28 29 29 28 27 27 28 30 33 35 36 37 37
4 6 3 3 3 4 2 1 1 1 3 5 3 4 2 2 3 2 2 2 1 7 5 5 11 9 4 8 6 3 2 4 5 6 8 9 10 11 11 11 11 10 10 11 11 10 10 13 18 22 25 28 30 33 35 37 38 39 38 37 35 33 31 28 25 22 21 20 20 22 24 25 27 28 29 30 29 28 27 28 30 32 34 35 36 37
1 4 5 2 4 2 3 2 2 3 1 4 3 2 2 2 2 1 2 2 4 8 5 6 11 9 6 9 8 10 10 5 6 7 10 12 12 12 11 11 11 9 9 9 9 9 10 13 20 24 27 31 33 33 34 36 37 39 39 38 37 35 34 33 30 27 24 21 20 21 22 24 25 27 28 30 30 30 30 31 32 33 35 36 36 37
1 2 4 1 1 0 3 1 3 2 1 2 1 2 1 3 3 2 3 2 4 8 7 7 8 6 6 7 7 11 8 8 8 8 9 10 11 11 9 9 9 8 9 8 9 10 10 14 21 25 26 28 29 30 31 33 36 37 38 38 38 38 37 36 35 32 28 24 21 20 21 22 24 26 28 29 30 31 32 33 33 34 36 36 37 38
2 2 4 1 2 1 1 4 6 6 4 1 1 3 2 2 1 1 2 2 3 7 7 7 8 6 4 3 5 7 8 10 9 9 8 8 10 10 10 10 9 10 11 10 10 10 10 14 19 22 24 25 27 29 31 32 33 35 36 37 37 37 37 38 37 35 33 29 24 21 21 21 22 24 26 29 30 32 33 34 34 35 35 36 37 37
0 2 3 2 3 4 5 6 6 7 6 5 4 5 5 5 3 4 6 4 3 5 5 7 8 5 3 5 7 6 10 10 9 10 8 8 10 9 9 9 9 9 10 10 10 9 9 12 16 19 21 24 26 28 30 31 32 33 35 35 35 35 35 36 36 35 34 32 30 27 24 22 22 22 23 26 29 32 34 34 35 35 35 36 37 37
2 2 3 6 6 6 8 6 5 6 4 3 3 3 3 3 3 6 7 4 3 4 4 6 7 3 3 4 3 8 11 8 8 9 8 7 8 8 9 9 9 8 8 8 7 7 8 11 14 16 18 20 21 23 25 27 29 30 31 33 34 35 35 35 35 34 33 33 33 32 30 28 25 22 22 23 26 30 33 34 35 35 36 37 37 37
2 2 2 5 5 4 7 6 0 2 2 1 2 3 3 4 5 7 6 3 3 5 5 7 7 3 2 3 4 11 10 8 9 9 8 7 6 7 8 9 9 9 8 8 7 7 9 11 13 14 15 17 18 20 22 23 24 26 28 30 32 34 35 36 36 35 34 33 32 32 32 32 30 26 23 23 24 26 29 32 33 34 36 37 37 37
1 1 2 3 3 3 5 6 4 3 1 1 3 3 3 4 6 5 3 2 3 5 7 8 6 2 2 5 5 7 9 9 9 8 7 6 5 5 6 6 6 7 8 9 9 10 11 12 13 14 16 17 18 19 20 21 21 22 23 26 28 29 31 34 34 35 35 34 33 33 33 33 32 31 29 27 26 25 27 29 30 31 33 34 36 37
1 1 2 4 5 5 6 6 3 2 1 1 2 4 3 3 5 4 3 4 4 6 8 8 6 4 3 7 7 6 7 7 7 6 6 5 3 2 3 3 3 4 6 7 8 9 9 10 12 15 19 19 19 20 20 21 22 22 22 23 25 26 27 29 30 31 32 33 33 34 35 36 35 34 33 31 29 28 27 28 28 29 30 31 33 35
0 2 4 7 9 9 9 8 4 4 5 5 6 7 7 7 6 4 3 5 6 7 7 8 10 10 9 10 7 4 6 4 4 4 4 3 2 2 2 2 2 3 3 4 5 6 8 9 10 14 18 20 22 22 21 21 22 23 24 25 27 28 28 28 29 29 29 29 28 29 32 35 36 36 36 34 33 31 29 28 28 29 29 30 32 33
1 3 5 9 11 10 11 11 9 8 9 9 10 11 12 11 9 9 10 10 9 9 7 9 11 12 11 9 3 3 3 3 3 3 2 1 1 1 2 3 4 5 5 5 6 6 7 8 8 10 15 18 20 22 23 23 23 23 24 25 28 30 31 31 31 30 30 29 28 28 30 32 34 36 37 37 36 35 32 30 29 29 30 30 31 33
2 4 6 9 11 10 10 11 7 6 7 7 9 10 11 12 12 13 14 13 11 11 11 11 13 16 13 6 2 3 3 2 3 1 1 1 2 2 2 4 5 6 6 7 7 6 6 6 6 8 12 15 17 19 21 22 24 25 25 26 27 28 29 30 31 31 31 30 29 29 30 31 32 34 36 37 38 38 36 34 32 29 29 30 31 32
2 4 5 5 8 8 9 9 7 7 9 9 10 10 11 14 16 16 16 15 14 15 16 15 18 18 10 1 6 4 2 1 3 2 2 2 3 3 3 4 4 5 5 6 7 6 6 6 6 7 11 13 15 17 18 19 21 23 24 26 28 29 29 29 29 29 29 30 29 30 31 31 31 32 34 35 36 37 38 37 36 33 31 30 30 32
2 3 3 3 4 7 9 10 9 9 10 11 11 11 14 17 17 17 17 16 16 17 16 16 18 13 1 4 4 3 1 0 1 2 4 4 3 3 4 5 5 5 5 5 6 6 6 7 7 8 10 13 14 16 17 18 20 20 21 24 26 28 29 28 27 27 27 28 29 30 32 33 34 34 34 34 35 36 38 38 38 36 34 32 30 31
2 2 4 4 4 7 9 10 10 10 11 11 12 15 20 19 16 15 15 14 13 13 13 13 11 5 3 2 1 2 2 1 1 2 4 4 4 3 4 5 5 5 5 5 6 6 7 7 8 9 11 14 15 16 16 18 20 20 21 24 27 28 29 28 27 26 26 26 26 28 30 32 34 35 35 35 35 35 36 37 37 37 36 34 32 31
2 3 3 4 5 7 9 7 4 6 9 11 11 14 17 17 15 15 14 13 10 6 7 9 5 1 3 3 1 1 1 1 1 3 4 4 4 4 4 5 5 6 6 6 6 7 7 8 9 11 14 16 16 16 17 17 18 18 20 24 27 28 28 28 28 28 27 26 25 26 28 30 31 33 34 35 35 35 34 34 35 35 35 34 33 31
4 6 5 4 4 8 8 3 4 4 11 11 6 4 7 9 11 11 10 8 4 1 2 1 2 3 3 3 1 3 3 3 3 4 4 4 3 3 4 5 6 7 6 6 6 6 6 8 11 13 15 17 18 18 18 18 18 18 20 23 25 26 26 27 28 29 29 28 27 27 28 29 29 30 31 33 34 35 34 33 33 33 33 33 33 31
7 8 6 3 3 5 3 3 4 10 10 6 2 1 2 4 4 4 3 2 1 1 3 4 4 4 4 3 4 5 5 6 5 5 6 5 4 4 5 5 6 7 7 7 7 7 7 10 12 14 15 17 18 19 19 19 19 20 22 24 24 24 24 24 26 27 27 28 29 30 30 30 30 29 30 31 32 33 33 33 33 33 33 32 31 31
8 6 3 2 3 2 0 3 8 7 4 6 6 2 0 1 2 1 1 2 2 2 3 4 3 4 4 4 5 5 5 5 3 5 8 7 7 6 5 5 6 7 7 8 8 9 11 13 14 15 17 18 19 20 20 20 19 21 24 25 24 24 23 23 24 25 25 26 28 30 31 32 31 30 30 31 32 32 32 32 32 33 33 32 31 31
8 6 3 3 4 2 2 6 6 6 8 10 8 2 1 2 3 2 0 3 4 3 2 2 3 5 6 6 6 5 3 1 3 6 8 8 9 8 6 6 8 8 9 11 13 14 16 16 16 18 19 19 21 22 21 21 20 21 24 25 25 24 24 23 24 24 24 25 27 29 31 31 30 31 32 32 31 32 33 33 33 33 32 31 31 31
8 7 5 4 4 3 3 4 5 6 7 5 4 4 3 2 3 3 0 1 4 4 4 4 5 6 7 7 7 4 1 2 5 6 5 7 9 8 7 8 9 11 13 15 16 17 17 17 17 18 19 20 22 23 22 21 21 22 24 25 24 24 24 24 24 24 24 26 27 29 31 29 28 29 32 32 32 33 35 36 35 34 32 31 31 31
6 5 5 4 4 4 4 4 4 6 5 3 5 5 4 3 3 2 2 1 2 3 5 7 7 8 6 7 7 2 2 2 6 6 5 8 9 7 7 7 9 13 17 18 17 17 17 18 18 19 20 20 23 24 22 20 21 22 24 25 24 22 22 23 24 24 25 27 29 31 31 28 27 28 30 32 34 36 36 36 35 35 34 33 32 32
2 2 4 5 5 6 7 5 4 4 3 3 6 5 4 3 3 3 4 4 3 4 6 7 9 9 7 7 6 4 4 6 7 8 8 8 8 8 9 9 9 12 16 18 19 18 18 18 18 19 21 22 24 24 23 21 22 23 23 24 24 22 22 24 25 25 26 29 32 33 31 27 27 30 31 33 36 38 37 35 34 35 35 34 33 32
1 0 2 4 6 9 9 6 5 4 3 4 6 6 4 2 4 0 6 4 4 6 6 7 9 9 7 6 5 4 6 9 9 10 9 6 7 8 10 13 14 14 16 19 20 18 16 17 19 20 24 26 25 25 23 21 22 24 24 23 23 24 25 26 27 27 28 31 33 32 31 30 31 33 35 36 36 35 36 35 34 35 36 35 34 32
1 0 1 2 3 5 5 5 5 5 3 4 5 3 3 3 1 5 5 3 3 6 5 6 8 8 6 7 6 6 8 10 10 11 10 9 9 8 9 11 12 13 17 18 19 18 15 17 21 23 27 29 27 25 23 20 21 24 24 23 25 26 26 26 27 27 29 32 32 31 33 35 36 37 38 38 35 33 36 38 37 36 36 35 34 32
3 1 2 3 3 2 3 4 5 5 2 4 3 0 1 4 4 4 3 3 5 6 5 5 7 6 6 7 7 8 9 10 11 11 11 12 12 9 9 10 9 12 15 17 19 19 16 17 22 26 30 32 29 26 22 19 21 24 24 26 28 27 25 26 27 28 30 31 32 33 36 37 38 38 38 38 36 34 37 40 38 36 35 34 33 31
2 3 3 4 2 2 3 5 5 4 4 4 4 2 4 5 4 4 5 7 7 5 4 5 5 7 7 7 8 9 9 10 11 12 12 13 11 9 8 9 10 12 14 16 21 22 19 19 23 28 32 34 33 28 23 20 22 25 27 30 30 27 26 28 29 29 31 32 33 35 37 37 38 38 37 37 36 35 36 38 37 34 34 33 31 28
4 6 5 4 3 3 5 7 5 2 3 4 4 5 7 9 8 6 5 5 6 4 4 4 5 7 7 7 8 8 8 10 12 12 12 10 9 8 8 9 12 15 17 19 23 24 22 22 25 27 31 35 36 32 27 23 23 25 29 31 29 26 27 30 30 31 34 35 36 36 36 36 38 38 37 36 35 32 33 36 34 32 31 30 29 27
6 4 2 2 4 3 6 10 8 5 7 8 7 7 8 9 9 6 3 4 6 6 5 5 6 7 7 7 7 7 8 11 11 10 9 7 7 8 9 11 15 18 20 22 23 24 23 24 26 27 29 34 37 34 29 26 25 27 30 31 29 27 28 29 31 33 35 37 38 37 36 37 38 38 38 37 35 33 33 34 33 32 30 28 27 27
4 4 3 4 7 5 7 11 9 6 9 10 9 10 10 10 8 5 4 6 6 6 6 6 6 6 7 7 6 7 9 9 7 7 7 7 8 10 9 10 14 18 21 23 24 24 23 23 25 26 27 32 37 35 30 29 30 30 31 30 30 29 29 30 32 34 36 38 39 38 37 36 36 37 38 38 37 35 34 33 32 31 30 28 26 25
2 3 4 7 9 8 11 14 10 7 9 10 9 9 10 10 10 7 6 6 5 5 5 4 3 4 4 4 3 4 6 7 5 6 7 8 9 10 9 10 14 19 23 25 25 25 24 23 24 26 28 32 37 37 34 33 34 34 32 31 30 29 31 34 35 36 38 40 41 40 38 37 36 36 37 37 36 36 36 35 34 32 32 32 29 26
2 2 3 4 7 9 12 14 11 8 9 11 11 10 9 9 10 10 7 3 2 3 4 4 2 2 2 2 3 3 6 7 5 5 7 9 10 10 10 14 18 21 24 26 26 26 26 25 26 27 29 33 37 39 38 38 38 37 34 32 32 31 33 38 39 39 41 40 39 39 38 36 35 35 34 35 36 37 38 38 36 35 36 37 34 31
4 6 5 3 5 9 10 11 9 6 7 9 10 9 6 5 5 6 5 4 4 3 4 5 4 3 2 2 3 3 6 8 6 6 7 9 10 12 14 17 20 23 25 26 27 28 28 28 29 30 32 35 38 39 40 41 42 40 37 35 35 34 35 37 37 38 39 37 35 35 35 35 35 35 34 34 34 35 37 38 37 35 36 37 36 34
7 9 7 5 8 12 12 12 9 4 6 10 10 5 1 2 1 1 2 2 2 2 2 3 5 5 3 2 3 4 6 7 7 8 8 10 13 16 18 19 20 22 25 27 27 28 31 33 34 33 34 36 38 39 40 42 43 43 40 39 38 37 37 37 35 34 34 33 32 33 33 34 35 33 31 32 32 30 30 31 30 28 30 32 33 34
Wind_Direction
119 138 163 208 224 224 215 207 223 253 341 324 261 263 262 276 274 261 267 264 231 283 273 259 274 280 278 276 277 277 278 275 270 267 270 275 276 275 274 269 270 273 272 285 323 332 319 307 300 288 278 270 262 256 250 246 242 238 234 229 226 224 220 216 214 212 210 208 207 209 212 215 216 216 216 218 220 220 221 221 220 220 219 218 218 217
103 169 215 228 228 220 209 207 234 273 308 272 257 278 273 256 270 270 271 273 241 237 259 249 272 281 283 277 270 267 267 267 270 276 276 271 274 276 271 271 278 279 280 309 5 4 353 337 316 297 280 266 259 256 250 246 244 241 234 229 227 224 218 216 215 212 210 210 209 209 213 214 214 215 215 217 219 219 220 220 219 219 218 218 218 218
124 210 236 238 222 87 62 93 132 218 240 250 246 281 282 261 278 276 263 284 326 214 271 280 280 282 278 270 261 256 256 264 273 273 265 264 267 270 272 290 302 292 297 331 25 21 1 338 313 298 284 270 264 261 255 249 247 241 235 231 228 224 220 217 215 213 213 213 213 213 215 214 213 216 218 218 219 219 219 219 219 218 217 217 218 217
197 239 243 238 191 177 252 117 126 264 245 228 235 271 276 268 280 270 265 317 342 252 276 295 290 282 268 266 264 260 255 260 268 266 260 255 254 267 286 309 297 295 310 327 356 13 334 311 305 300 292 286 275 266 260 253 247 241 237 233 228 225 222 219 216 215 215 214 213 214 217 216 214 218 219 218 221 221 219 219 218 218 217 217 217 217
239 244 225 195 164 187 231 242 229 260 258 229 218 230 255 258 252 250 279 345 330 287 303 315 301 284 247 259 274 277 277 260 261 262 260 259 254 274 291 286 280 304 315 323 340 335 306 302 307 305 304 301 289 279 275 266 255 248 243 237 231 227 224 220 218 215 212 210 209 208 211 212 211 215 216 215 218 219 218 218 218 217 217 217 217 217
263 246 146 115 126 151 192 240 228 215 245 271 223 218 237 254 257 260 298 359 352 312 349 0 326 298 197 174 274 289 323 292 258 248 256 287 1 293 278 281 315 43 336 325 327 307 304 310 314 319 327 323 310 304 299 289 273 259 251 243 235 229 225 222 218 214 210 208 205 201 199 198 199 204 209 212 215 214 215 217 217 217 217 217 218 218
257 274 115 142 130 117 161 241 228 184 212 287 243 216 228 247 262 269 292 340 307 260 307 39 1 285 271 196 254 261 274 273 259 256 274 314 312 286 283 295 353 46 4 329 307 302 314 322 328 334 342 341 331 324 315 305 293 273 258 249 240 233 228 224 218 214 209 206 204 203 202 202 202 206 213 216 216 216 216 216 216 217 218 218 218 218
207 80 68 109 117 125 177 242 218 163 165 260 247 186 196 225 243 240 238 238 242 279 314 29 139 279 283 231 242 211 188 252 263 274 293 293 281 285 290 319 24 24 353 336 316 318 317 324 340 338 342 348 345 337 328 318 308 289 270 256 247 240 233 227 221 214 209 207 205 206 207 210 212 214 219 221 218 219 218 215 216 217 216 217 217 217
168 160 154 136 116 161 201 215 183 156 172 248 207 127 147 184 203 167 161 208 279 334 313 276 140 262 280 263 51 103 199 249 267 274 287 294 295 292 297 16 43 355 324 342 339 338 325 329 344 344 349 357 357 353 347 339 327 306 283 264 252 244 237 230 224 217 213 211 208 208 209 213 218 220 223 224 221 220 218 215 215 216 215 215 215 216
174 192 180 149 146 207 213 203 174 162 188 225 131 96 76 79 77 91 122 127 41 318 258 212 172 245 282 281 104 49 263 258 264 265 278 297 301 294 318 32 32 300 324 359 351 339 322 335 355 360 4 8 11 9 0 354 347 331 305 275 256 246 240 233 227 222 218 215 212 212 212 214 219 220 222 225 222 219 218 216 215 215 216 215 214 214
227 331 156 160 187 199 166 129 169 160 161 134 103 60 37 42 43 55 55 88 52 289 238 196 190 200 285 299 155 186 234 228 250 310 301 305 304 300 353 31 346 330 12 10 352 339 342 4 12 12 10 11 16 18 13 6 358 347 331 298 270 252 241 235 229 225 222 219 217 218 218 218 219 218 217 219 219 217 215 214 215 216 217 217 216 215
163 120 229 248 221 134 109 85 22 78 115 103 82 51 24 347 12 26 354 45 154 263 253 207 194 185 240 266 237 269 269 230 215 312 304 301 297 305 6 16 346 6 27 13 352 356 8 12 11 9 8 8 12 15 14 12 6 357 345 322 296 271 250 239 233 228 226 223 222 224 225 225 224 221 219 218 218 216 214 214 214 215 216 217 218 216
258 211 245 292 253 144 125 106 5 21 91 108 103 104 30 320 349 357 314 62 213 251 271 238 181 212 247 252 260 277 280 261 218 244 280 288 290 322 1 352 346 19 28 13 360 11 18 13 8 6 6 8 11 11 11 13 11 2 351 338 322 304 277 253 241 234 231 229 227 228 229 230 230 227 226 224 222 220 218 216 214 213 214 215 217 218
287 274 239 243 272 179 151 166 228 245 170 157 157 157 151 181 236 273 261 260 271 272 301 272 170 257 280 275 239 246 265 280 261 242 269 277 294 331 341 331 355 19 22 13 10 19 20 14 13 12 10 12 13 12 13 15 13 7 359 350 341 332 311 278 256 244 239 236 234 234 234 235 235 233 233 231 229 227 224 220 217 217 217 217 219 220
253 291 222 186 241 177 175 194 182 140 157 176 162 145 156 171 189 232 232 253 276 280 315 305 187 228 268 280 241 238 269 316 333 308 299 310 319 320 324 354 15 17 17 19 21 25 22 16 19 19 18 16 14 16 18 17 16 13 9 3 356 346 331 308 282 261 251 246 242 240 239 240 241 240 240 239 237 235 232 228 224 222 222 222 223 223
215 267 247 218 154 162 181 212 129 107 133 200 124 118 197 193 176 229 247 234 257 276 273 246 227 232 238 283 280 260 277 325 331 334 8 18 16 34 28 25 28 21 20 22 27 28 22 21 23 21 20 18 17 18 19 20 19 17 15 12 6 356 343 328 307 286 270 261 254 249 246 246 246 246 245 245 244 242 240 237 233 230 228 227 227 226
237 264 271 28 341 184 185 197 132 137 189 166 120 182 220 171 144 209 279 290 78 261 248 213 252 276 291 289 290 208 96 18 8 13 38 32 28 44 38 34 36 29 26 25 28 29 24 24 24 22 23 21 20 19 20 21 22 22 20 17 14 7 359 347 331 314 296 281 270 262 256 253 251 250 249 248 248 246 244 243 240 238 235 232 231 229
248 273 261 152 216 244 206 128 38 18 146 134 170 214 194 116 115 126 269 337 296 253 248 215 249 271 281 279 306 20 335 5 25 19 30 23 24 41 44 44 41 34 31 27 24 25 25 27 24 22 22 21 21 21 20 22 22 24 24 22 20 16 10 3 352 338 322 305 289 277 268 263 259 256 254 252 251 250 247 245 243 241 239 237 235 234
243 275 279 184 196 256 39 54 332 326 117 138 207 236 117 173 229 129 177 233 246 253 255 221 238 251 247 260 284 284 286 352 30 22 31 27 24 34 42 43 37 34 33 27 24 21 20 23 22 21 20 19 20 20 19 20 21 22 22 21 21 19 16 13 8 360 348 331 312 296 283 274 269 265 261 258 255 253 249 247 245 242 241 240 238 236
73 232 270 18 157 324 52 92 215 250 322 52 325 301 65 176 199 177 178 178 229 253 260 241 235 231 228 241 267 280 309 30 45 37 40 37 34 34 35 37 31 33 33 26 24 22 18 20 20 20 20 18 19 19 19 19 19 19 19 18 18 17 15 15 13 10 4 354 337 318 303 291 282 276 271 267 261 257 253 251 248 246 244 242 240 237
58 228 247 4 355 289 182 210 198 198 206 161 205 241 238 216 197 243 231 172 218 248 255 252 244 234 233 258 284 309 10 50 64 62 44 29 35 32 28 30 24 23 25 21 20 18 16 18 18 20 20 19 19 19 19 18 18 17 16 15 15 14 13 12 11 11 9 5 356 341 327 316 303 292 283 277 270 264 259 256 253 250 248 245 242 239
183 238 233 252 269 243 241 234 199 189 179 163 188 208 215 222 229 264 249 209 212 242 244 255 258 247 242 284 303 357 52 59 60 67 57 32 30 27 25 29 27 25 22 16 16 13 11 13 14 17 19 20 20 18 17 16 16 15 14 12 11 11 10 9 7 7 7 8 6 359 350 339 326 312 298 285 277 271 266 262 258 255 252 249 246 242
145 140 230 244 244 248 264 257 189 175 164 152 206 217 228 231 222 244 251 235 223 237 243 258 261 243 204 250 320 57 74 65 55 69 68 45 31 26 23 22 25 29 23 16 15 12 10 11 13 16 18 20 20 18 17 16 14 13 11 10 9 8 7 6 5 5 5 6 8 7 4 358 348 333 314 296 285 278 273 269 265 260 255 252 249 245
91 110 249 257 262 287 292 287 241 122 132 201 236 214 215 242 244 244 251 266 253 241 249 258 258 271 308 303 62 85 89 75 64 66 63 51 33 24 20 17 18 15 11 10 8 7 8 9 13 16 16 17 17 17 16 16 14 12 10 9 8 6 4 3 3 3 3 4 5 7 7 4 359 351 335 317 302 291 284 278 272 266 260 256 252 248
321 218 257 286 292 306 300 293 317 1 13 221 241 239 229 245 269 281 285 286 262 226 235 256 260 247 329 333 14 68 82 82 76 71 71 65 38 21 18 15 12 5 4 5 2 3 4 4 7 7 8 10 11 12 12 12 12 11 9 8 7 5 3 2 1 1 2 2 2 4 5 4 2 358 350 338 325 313 301 291 281 273 266 260 254 250
277 242 251 277 271 264 270 269 275 310 280 241 287 309 316 244 246 282 291 262 253 231 230 252 268 260 294 310 318 12 55 81 89 84 88 86 69 51 28 11 7 5 4 2 0 2 0 360 1 359 359 1 2 5 6 5 6 5 4 5 4 3 2 1 1 0 0 1 1 1 1 1 360 358 354 349 341 332 321 309 297 286 276 267 260 254
282 250 235 249 256 260 271 275 285 296 278 270 280 288 289 269 247 255 259 246 263 272 256 255 267 274 284 287 294 15 45 65 82 81 83 83 82 77 26 3 4 1 1 0 359 1 360 359 358 354 354 354 354 357 359 360 1 0 360 0 360 360 359 358 359 359 359 359 359 359 358 358 357 355 354 351 347 343 336 326 314 302 291 281 271 262
154 257 240 245 256 262 273 280 289 293 281 275 280 279 278 276 263 252 252 255 273 282 264 255 265 271 273 274 289 43 46 66 85 89 93 86 48 12 353 349 360 0 360 2 359 360 1 356 350 348 348 348 349 351 352 354 356 357 357 357 356 357 357 356 356 356 356 356 356 356 355 354 354 354 353 352 350 348 344 337 327 315 304 293 280 270
150 261 257 261 271 274 280 287 293 295 287 281 282 282 284 283 271 262 262 267 269 265 265 272 272 271 272 266 123 71 34 73 109 155 181 207 288 322 343 350 2 357 350 354 352 350 349 343 340 340 341 342 345 347 350 351 351 352 353 353 353 354 354 354 354 353 352 352 352 351 350 351 351 351 352 352 351 349 346 341 335 326 314 302 289 279
173 258 264 269 283 285 284 288 294 295 291 285 282 279 276 271 267 267 269 269 262 257 263 271 268 268 276 155 120 99 33 97 148 193 230 252 284 304 338 354 1 350 344 347 341 334 333 331 331 332 335 338 341 345 347 347 348 349 349 349 349 349 350 351 350 350 349 348 347 346 346 347 347 348 349 349 348 347 346 343 340 333 323 310 297 286
257 280 315 340 308 288 282 284 288 292 289 286 287 281 268 262 261 263 265 265 262 262 262 262 263 265 281 95 115 114 86 317 155 215 237 233 259 299 334 349 348 344 338 330 323 320 320 322 325 328 333 335 337 340 342 342 343 345 345 346 346 345 346 346 345 345 344 343 343 343 344 344 344 344 345 345 345 345 344 342 340 337 330 319 306 293
291 301 337 340 291 273 279 287 295 304 300 287 276 266 262 260 258 257 258 258 259 265 268 266 267 261 129 104 65 115 119 316 255 261 264 235 238 279 318 331 335 332 320 314 314 314 314 319 324 328 329 329 330 333 336 337 338 340 342 342 341 341 342 342 341 341 340 340 340 340 341 341 340 340 340 341 341 342 341 340 338 336 333 325 314 301
245 265 291 284 273 275 280 288 323 340 306 282 262 254 254 256 257 257 260 263 263 267 272 270 270 178 136 112 49 13 328 308 253 274 288 263 248 260 283 307 322 315 302 302 306 307 312 315 315 316 317 317 319 322 326 330 333 334 336 337 337 338 338 338 337 337 336 337 339 339 338 337 336 335 334 335 336 336 337 336 334 333 331 326 320 308
234 253 257 244 256 274 281 323 25 303 274 271 265 236 239 249 257 261 261 261 260 194 207 213 117 135 152 135 166 249 271 272 254 258 266 259 248 263 284 305 312 301 290 286 284 285 288 290 292 298 303 306 309 313 318 323 327 327 329 332 333 334 333 333 333 333 333 334 335 336 336 335 333 330 329 330 331 331 331 331 330 329 327 325 321 312
242 247 245 220 229 268 309 19 298 262 254 267 293 216 221 224 226 248 249 217 203 171 147 124 124 164 180 183 207 220 232 246 250 257 261 245 211 228 274 300 297 290 287 286 282 277 276 279 283 290 297 301 306 310 313 317 322 323 324 328 329 327 327 327 327 328 329 330 331 333 334 333 330 327 326 327 327 327 326 325 325 325 324 322 317 311
237 238 229 206 214 257 25 216 246 264 290 290 281 263 241 141 127 113 253 189 197 210 159 144 163 197 213 229 231 226 234 250 259 259 259 243 213 216 249 275 276 275 277 281 283 282 283 285 288 292 296 300 304 307 308 312 317 318 319 322 322 320 320 321 321 323 324 325 326 329 330 330 327 324 324 325 324 323 321 320 319 319 320 318 314 310
219 217 199 221 230 220 217 229 250 308 313 287 275 259 173 166 152 140 259 214 200 204 206 182 193 217 232 244 248 241 240 299 294 266 249 227 212 213 224 245 257 262 266 271 275 278 283 287 292 295 297 299 301 302 302 305 309 312 314 316 317 316 315 315 315 317 318 319 321 323 325 325 322 320 320 321 321 320 318 316 314 313 314 312 310 307
208 210 197 223 242 217 226 253 260 278 281 266 258 263 250 208 186 165 105 230 189 203 227 210 217 235 235 242 252 251 56 348 284 271 239 211 213 218 224 239 249 255 263 269 272 276 281 287 291 292 292 294 296 296 296 297 301 306 308 308 310 310 309 309 310 312 314 315 316 319 320 319 316 315 316 317 316 315 314 313 310 309 308 307 303 301
191 210 204 218 252 232 231 250 244 253 266 205 205 242 254 229 189 122 1 295 185 229 237 206 223 245 236 239 244 200 117 258 267 274 246 216 221 229 231 242 251 257 265 270 272 275 282 289 291 289 288 288 290 292 293 292 295 300 301 301 303 301 298 299 303 307 310 311 312 315 316 313 310 310 312 311 311 311 310 308 306 305 305 303 300 297
125 209 213 212 234 238 240 252 247 256 269 201 202 226 238 214 119 68 312 273 187 245 240 197 217 241 231 235 234 181 191 234 254 270 252 218 221 234 236 244 252 257 266 273 276 278 285 291 292 289 288 287 288 292 293 291 294 295 294 296 298 294 293 297 301 304 306 308 310 312 311 308 306 307 307 307 307 308 307 305 303 302 302 300 297 294
30 340 230 219 231 235 238 248 256 260 250 211 207 206 192 128 78 262 260 234 184 233 231 191 216 236 226 226 221 196 221 234 247 265 264 240 237 243 243 250 256 263 269 274 280 283 286 289 289 287 288 289 290 292 292 291 291 290 291 293 291 289 294 299 301 302 304 306 308 307 305 304 304 305 305 304 305 305 303 301 300 299 299 297 295 292
212 37 263 230 228 236 237 247 267 277 246 185 195 199 144 105 209 230 224 183 202 248 241 201 218 233 227 228 226 225 242 250 256 266 269 264 259 255 256 261 267 275 278 281 286 289 291 294 293 290 290 291 292 293 293 292 288 287 290 289 285 288 296 298 297 299 302 303 303 301 300 301 302 303 304 304 304 303 300 299 299 297 296 294 291 289
182 154 248 222 195 219 240 234 251 270 238 153 150 266 146 166 209 240 271 283 269 270 264 233 227 227 227 236 243 247 256 264 268 269 266 264 263 263 268 272 274 280 286 290 292 294 298 298 295 293 293 294 294 294 294 291 286 287 288 284 285 292 297 296 296 299 300 299 298 297 298 299 300 301 301 301 301 301 298 297 297 295 293 291 288 286
196 176 231 237 203 183 217 228 227 228 220 170 144 193 233 223 239 280 297 295 292 280 248 237 240 235 229 236 252 261 266 272 273 272 267 265 265 267 271 279 284 288 292 295 295 299 303 298 292 292 293 293 294 294 293 289 285 284 283 283 288 296 296 295 298 299 298 297 296 296 297 297 298 298 297 297 298 297 295 294 294 292 290 287 284 281
219 198 210 236 224 175 205 240 241 206 223 220 190 215 247 262 274 274 257 268 281 262 220 221 251 256 246 241 252 261 268 269 270 270 269 268 273 281 288 295 298 298 299 297 296 299 301 296 291 290 290 292 293 294 294 291 284 280 280 285 292 297 296 297 299 298 296 296 295 295 296 296 296 295 294 294 294 292 290 290 290 289 286 283 280 275
233 202 164 262 268 254 249 255 254 253 264 261 250 251 258 267 277 274 228 233 256 253 238 233 247 260 264 259 259 260 262 267 273 277 282 292 296 297 301 303 302 301 299 297 297 300 301 298 294 291 290 291 292 294 295 294 287 281 283 291 297 298 297 298 298 296 295 294 294 295 296 296 295 294 294 294 292 289 286 284 284 283 281 278 273 268
244 190 175 244 260 264 263 259 250 242 256 263 266 271 271 271 274 260 216 232 249 252 254 253 253 262 268 269 271 270 271 282 297 303 309 314 303 299 303 301 299 299 296 295 299 303 303 298 294 293 293 293 294 296 298 296 291 288 290 296 299 300 300 299 296 294 293 292 293 294 294 293 293 293 294 293 292 289 286 281 279 278 276 274 269 264
236 166 187 233 244 240 251 261 261 246 251 259 262 266 273 279 280 269 248 250 260 264 270 277 281 281 283 291 305 300 294 303 320 316 309 304 296 296 298 296 297 299 298 299 303 305 304 298 294 294 294 293 295 298 299 297 294 294 297 299 301 303 302 299 295 293 291 291 291 291 291 291 290 289 290 290 289 287 284 280 278 275 272 270 267 263
182 171 180 211 241 249 255 264 269 266 264 263 258 257 262 267 270 274 279 301 348 331 320 330 341 354 15 4 10 356 312 303 309 305 295 293 293 295 299 302 303 302 301 304 307 307 304 300 298 297 295 295 297 300 301 299 298 299 301 302 303 304 301 297 294 292 290 289 289 289 289 289 288 286 287 287 286 283 280 278 276 274 272 271 267 263
188 229 216 183 243 259 259 256 255 262 270 267 263 262 262 259 264 279 308 4 41 26 355 343 331 346 52 45 11 348 303 294 304 305 292 290 293 298 304 307 306 304 305 308 309 308 306 304 304 303 300 299 301 302 301 300 300 302 303 304 303 302 298 294 292 290 288 287 287 288 289 289 288 287 285 283 283 283 282 279 274 268 267 268 268 266
211 229 225 210 238 254 261 260 252 237 250 265 272 279 355 41 37 280 327 16 55 60 26 358 327 322 333 334 328 315 292 291 307 311 299 291 293 299 305 306 306 306 309 312 313 312 311 310 309 307 304 304 304 304 302 302 302 303 304 303 302 299 294 291 289 286 286 287 287 287 289 289 288 288 286 283 281 278 277 280 280 274 268 269 272 273